EW7837 Weather Reports


time (UTC)temp
F
wind
direction
speed
knots
gust
knots
rain 1hr
in
rain 24hr
in
rain mn
in
humidity
%
barometer
mb
20260903220019 79 270 0.0 0.0 0.00 0.00 0.00 64 1010.1
20260903214520 79 266 0.9 0.0 0.00 0.00 0.00 65 1010.0
20260903213019 79 273 0.0 0.0 0.00 0.00 0.00 65 1010.1
20260903211515 79 227 0.0 0.0 0.00 0.00 0.00 67 1010.1
20260903210015 79 260 0.0 0.0 0.00 0.00 0.00 66 1010.0
20260903204516 79 267 0.0 0.0 0.00 0.00 0.00 67 1010.1
20260903203012 78 265 0.0 0.0 0.00 0.00 0.00 65 1010.3
20260903201509 78 265 0.9 0.0 0.00 0.00 0.00 68 1010.3
20260903200010 78 221 0.9 0.0 0.00 0.00 0.00 69 1010.5
20260903194505 78 209 0.0 0.0 0.00 0.00 0.00 68 1010.4
20260903193005 78 238 0.0 0.0 0.00 0.00 0.00 67 1010.6
20260903191538 79 234 0.0 0.0 0.00 0.00 0.00 67 1010.7
20260903190033 78 257 0.0 0.0 0.00 0.00 0.00 65 1010.9
20260903184558 79 257 0.0 0.0 0.00 0.00 0.00 65 1011.1
20260903183055 78 243 0.0 0.0 0.00 0.00 0.00 64 1011.0
20260903181549 79 245 0.0 0.0 0.00 0.00 0.00 63 1011.3
20260903180049 78 242 0.0 0.0 0.00 0.00 0.00 64 1011.3
20260903174543 79 253 0.0 0.0 0.00 0.00 0.00 65 1011.4
20260903173039 78 254 0.0 0.0 0.00 0.00 0.00 63 1011.1
20260903171515 78 261 0.0 0.0 0.00 0.00 0.00 64 1011.5
20260903170011 76 261 0.0 0.0 0.00 0.00 0.00 66 1011.4
20260903164506 75 261 0.0 0.0 0.00 0.00 0.00 70 1011.5
20260903163037 73 261 0.0 0.0 0.00 0.00 0.00 74 1011.2
20260903161537 72 261 0.0 0.0 0.00 0.00 0.00 76 1011.7
20260903160050 71 261 0.0 0.0 0.00 0.00 0.00 76 1011.7
20260903154519 70 261 0.0 0.0 0.00 0.00 0.00 80 1011.7
20260903153013 68 261 0.0 0.0 0.00 0.00 0.00 80 1011.7
20260903151509 66 261 0.0 0.0 0.00 0.00 0.00 84 1011.5
20260903150014 64 261 0.0 0.0 0.00 0.00 0.00 87 1011.8
20260903144605 63 261 0.0 0.0 0.00 0.00 0.00 89 1011.7
20260903143031 61 261 0.0 0.0 0.00 0.00 0.00 91 1011.6
20260903141526 60 261 0.0 0.0 0.00 0.00 0.00 91 1011.6
20260903140022 59 261 0.0 0.0 0.00 0.00 0.00 91 1011.0
20260903134521 59 261 0.0 0.0 0.00 0.00 0.00 91 1011.1
20260903133020 59 261 0.0 0.0 0.00 0.00 0.00 91 1011.1
20260903131520 59 261 0.0 0.0 0.00 0.00 0.00 91 1011.1
20260903130017 59 261 0.0 0.0 0.00 0.00 0.00 90 1011.1
20260903124517 59 261 0.0 0.0 0.00 0.00 0.00 90 1010.8
20260903123017 59 261 0.0 0.0 0.00 0.00 0.00 90 1011.1
20260903121515 59 261 0.0 0.0 0.00 0.00 0.00 90 1011.0
20260903120012 59 261 0.0 0.0 0.00 0.00 0.00 90 1011.1
20260903114512 60 261 0.0 0.0 0.00 0.00 0.00 90 1011.0
20260903113010 59 261 0.0 0.0 0.00 0.00 0.00 89 1010.8
20260903111509 59 261 0.0 0.0 0.00 0.00 0.00 90 1011.1
20260903110005 59 261 0.0 0.0 0.00 0.00 0.00 89 1011.1
20260903104505 60 261 0.0 0.0 0.00 0.00 0.00 89 1011.1
20260903103003 60 261 0.0 0.0 0.00 0.00 0.00 90 1011.1
20260903101503 60 261 0.0 0.0 0.00 0.00 0.00 89 1010.9
20260903100031 60 261 0.0 0.0 0.00 0.00 0.00 89 1011.2
20260903094535 61 261 0.0 0.0 0.00 0.00 0.00 89 1011.3
20260903093039 61 261 0.0 0.0 0.00 0.00 0.00 88 1011.5
20260903091527 61 261 0.0 0.0 0.00 0.00 0.00 88 1011.6
20260903090031 61 261 0.0 0.0 0.00 0.00 0.00 88 1011.4
20260903084525 61 261 0.0 0.0 0.00 0.00 0.00 88 1011.9
20260903083022 61 261 0.0 0.0 0.00 0.00 0.00 87 1012.1
20260903081521 61 261 0.0 0.0 0.00 0.00 0.00 87 1012.1
20260903080027 62 261 0.0 0.0 0.00 0.00 0.00 88 1012.1
20260903074518 62 261 0.0 0.0 0.00 0.00 0.00 87 1011.7
20260903073055 62 261 0.0 0.0 0.00 0.00 0.00 87 1011.6
20260903071547 63 261 0.0 0.0 0.00 0.00 0.00 86 1012.0
20260903070041 63 261 0.0 0.0 0.00 0.00 0.00 85 1012.1
20260903064543 64 261 0.0 0.0 0.00 0.00 0.00 85 1012.1
20260903063040 64 261 0.0 0.0 0.00 0.00 0.00 85 1011.7
20260903061544 64 261 0.0 0.0 0.00 0.00 0.00 85 1011.7
20260903060034 65 261 0.0 0.0 0.00 0.00 0.00 84 1012.1
20260903054532 65 261 0.0 0.0 0.00 0.00 0.00 84 1012.2
20260903053031 65 261 0.0 0.0 0.00 0.00 0.00 83 1012.2
20260903051530 65 261 0.0 0.0 0.00 0.00 0.00 83 1012.2
20260903050100 66 261 0.0 0.0 0.00 0.00 0.00 82 1012.1
20260903044559 67 261 0.0 0.0 0.00 0.00 0.00 81 1011.9
20260903043024 67 261 0.0 0.0 0.00 0.00 0.00 81 1011.9
20260903041529 68 261 0.0 0.0 0.00 0.00 0.00 78 1012.1
20260903040013 70 261 0.0 0.0 0.00 0.00 0.00 79 1011.9
20260903034518 71 261 0.0 0.0 0.00 0.00 0.00 79 1011.7
20260903021629 73 261 0.0 0.0 0.00 0.00 0.00 71 1011.1
20260903020128 75 261 0.0 0.0 0.00 0.00 0.00 67 1011.1
20260903014601 76 261 0.0 0.0 0.00 0.00 0.00 64 1011.1
20260903013059 77 261 0.0 0.0 0.00 0.00 0.00 63 1010.7
20260903011559 77 261 0.0 0.0 0.00 0.00 0.00 65 1010.6
20260903010101 77 263 0.0 0.0 0.00 0.00 0.00 66 1010.6
20260903004600 78 275 0.0 0.0 0.00 0.00 0.00 66 1010.6
20260903003100 79 244 0.0 0.0 0.00 0.00 0.00 65 1010.7
20260903001603 78 242 0.0 0.0 0.00 0.00 0.00 65 1011.1
20260903000054 79 257 0.0 0.0 0.00 0.00 0.00 64 1011.1
20260902234601 79 259 0.0 0.0 0.00 0.00 0.00 63 1011.3
20260902233057 79 270 0.0 0.0 0.00 0.00 0.00 63 1011.4
20260902231550 79 246 0.0 0.0 0.00 0.00 0.00 64 1011.1
20260902230051 78 232 0.0 0.0 0.00 0.00 0.00 64 1011.2
20260902224600 79 255 0.0 0.0 0.00 0.00 0.00 65 1011.4
20260902223019 79 262 0.0 0.0 0.00 0.00 0.00 65 1011.6
20260902221523 78 244 0.0 0.0 0.00 0.00 0.00 66 1011.7